User: anonymous   Login
Location: Ostrava
(49.8330°N, 18.2830°E)
Time: 09:36:11
(UTC+02:00)
Language:

Cosmos 1400 Rocket - Orbit

View from above orbital plane
View from above orbital plane
View from above satellite
View from above satellite

Ground track
Ground track

The orbit data is extracted from the following two-line orbital elements,

1 13403U 82079B   15145.12803298  .00000729  00000-0  48765-4 0  9998
2 13403 081.1712 052.3557 0033676 240.2490 119.5381 15.05307511783224
Epoch (UTC): 25 May 2015 03:04:22
Eccentricity: 0.0033676
inclination: 81.1712°
perigee height: 527 km
apogee height: 574 km
right ascension of ascending node: 52.3557°
argument of perigee: 240.2490°
revolutions per day: 15.05307511
mean anomaly at epoch: 119.5381°
orbit number at epoch: 78322

The dashed part of the orbit path shows where the satellite is in the earth's shadow,  

DLR